Honolulu, HI

8:13 AM HST on April 28, 2017 (GMT -1000)
Honolulu International

Weather History for PHNL - June, 2013

Change the Weather History Date:

Thursday, June 27, 2013

  Actual Average Record
Temperature  
Mean Temperature 78 °F 81 °F  
Max Temperature 84 °F 88 °F 90 °F (1981)
Min Temperature 72 °F 74 °F 67 °F (1973)
Degree Days  
Heating Degree Days 0 0  
Month to date heating degree days 0 0  
Since 1 June heating degree days 0 0  
Since 1 July heating degree days 0 0  
Cooling Degree Days 13 16  
Month to date cooling degree days 369 410  
Year to date cooling degree days 1829 1912  
Since 1 June cooling degree days 369 410  
Growing Degree Days 27 (Base 50)    
Moisture  
Dew Point 64 °F    
Average Humidity 65    
Maximum Humidity 79    
Minimum Humidity 51    
Precipitation  
Precipitation 0.00 in 0.00 in 0.12 in (1970)
Month to date precipitation 0.13 0.23  
Year to date precipitation 8.59 7.80  
Snow  
Snow 0.00 in - - ()
Month to date snowfall 0.0  
Since 1 June snowfall 0.0  
Since 1 July snowfall 0.0  
Snow Depth 0.00 in    
Sea Level Pressure  
Sea Level Pressure 30.01 in    
Wind  
Wind Speed 9 mph (NE)    
Max Wind Speed 16 mph    
Max Gust Speed 29 mph    
Visibility 10 miles    
Events      
T = Trace of Precipitation, MM = Missing Value Source: NWS Daily Summary

Daily Weather History Graph

Daily Weather History Graph

Search for Another Location

Airport or City:

Trip Planner

Search our weather history database for the weather conditions in past years. The results will help you decide how hot, cold, wet, or windy it might be!

Date:

Astronomy

Jun. 27, 2013 Rise Set
Actual Time 5:52 AM HST 7:17 PM HST
Civil Twilight 5:27 AM HST 7:42 PM HST
Nautical Twilight 4:57 AM HST 8:11 PM HST
Astronomical Twilight 4:26 AM HST 8:42 PM HST
Moon 11:04 PM HST (6/27) 10:27 AM HST (6/27)
Length of Visible Light 14h 15m
Length of Day
13h 25m
Waning Gibbous, 74% of the Moon is Illuminated
Jun 27
Waning Gibbous
Jun 29
Last Quarter
Jul 7
New
Jul 15
First Quarter
Jul 22
Full

Hourly Weather History & Observations

Time (HST) Temp. Heat Index Dew Point Humidity Pressure Visibility Wind Dir Wind Speed Gust Speed Precip Events Conditions
12:53 AM 73.9 °F - 64.0 °F 71% 30.03 in 10.0 mi NNE 5.8 mph - N/A   Scattered Clouds
1:53 AM 73.9 °F - 64.0 °F 71% 30.01 in 10.0 mi ENE 11.5 mph 17.3 mph N/A   Scattered Clouds
2:53 AM 73.0 °F - 63.0 °F 71% 30.00 in 10.0 mi NNE 5.8 mph - N/A   Partly Cloudy
3:53 AM 73.0 °F - 64.0 °F 73% 29.99 in 10.0 mi NE 8.1 mph - N/A   Partly Cloudy
4:53 AM 72.0 °F - 63.0 °F 73% 29.99 in 10.0 mi NE 5.8 mph - N/A   Partly Cloudy
5:53 AM 72.0 °F - 64.0 °F 76% 30.00 in 10.0 mi Calm Calm - N/A   Partly Cloudy
6:53 AM 73.9 °F - 63.0 °F 68% 30.02 in 10.0 mi NE 4.6 mph - N/A   Scattered Clouds
7:53 AM 77.0 °F - 63.0 °F 62% 30.03 in 10.0 mi NE 6.9 mph - N/A   Scattered Clouds
8:53 AM 79.0 °F - 61.0 °F 54% 30.04 in 10.0 mi ENE 11.5 mph 18.4 mph N/A   Scattered Clouds
9:53 AM 81.0 °F 81.7 °F 61.0 °F 50% 30.04 in 10.0 mi NE 11.5 mph 20.7 mph N/A   Scattered Clouds
10:53 AM 81.0 °F 81.9 °F 62.1 °F 52% 30.03 in 10.0 mi NE 8.1 mph - N/A   Scattered Clouds
11:53 AM 81.0 °F 81.9 °F 62.1 °F 52% 30.02 in 10.0 mi ENE 9.2 mph 18.4 mph N/A   Scattered Clouds
12:53 PM 81.0 °F 82.2 °F 63.0 °F 54% 30.00 in 10.0 mi ENE 15.0 mph 19.6 mph N/A   Mostly Cloudy
1:53 PM 81.0 °F 82.2 °F 63.0 °F 54% 29.99 in 10.0 mi NE 9.2 mph 20.7 mph N/A   Mostly Cloudy
2:53 PM 81.0 °F 82.5 °F 64.0 °F 56% 29.98 in 10.0 mi North 12.7 mph 20.7 mph N/A   Mostly Cloudy
3:53 PM 80.1 °F 81.7 °F 64.0 °F 58% 29.97 in 10.0 mi NNE 13.8 mph 19.6 mph N/A   Mostly Cloudy
4:53 PM 79.0 °F - 64.0 °F 60% 29.98 in 10.0 mi NNE 13.8 mph - N/A   Mostly Cloudy
5:53 PM 77.0 °F - 64.9 °F 66% 29.98 in 10.0 mi NNE 12.7 mph - N/A   Scattered Clouds
6:53 PM 75.0 °F - 66.0 °F 73% 30.00 in 10.0 mi NE 12.7 mph - 0.00 in   Mostly Cloudy
7:53 PM 75.0 °F - 64.9 °F 71% 30.01 in 10.0 mi NE 9.2 mph - N/A   Scattered Clouds
8:53 PM 75.0 °F - 64.9 °F 71% 30.02 in 10.0 mi NE 6.9 mph - N/A   Scattered Clouds
9:53 PM 75.0 °F - 64.9 °F 71% 30.03 in 10.0 mi NE 9.2 mph - N/A   Scattered Clouds
10:53 PM 75.0 °F - 64.9 °F 71% 30.04 in 10.0 mi ENE 11.5 mph - N/A   Scattered Clouds
11:53 PM 75.0 °F - 64.9 °F 71% 30.03 in 10.0 mi ENE 12.7 mph - N/A   Mostly Cloudy